Regional Weather Roundup
Issued by NWS

Home | Current Version | Previous Version | Text Only | Print | Product List | Glossary On
Versions: 1 2 3 4 5 6 7 8 9 10 11 12 13 14 15 16 17 18 19 20 21 22 23 24 25 26 27 28 29 30 31 32 33 34 35 36 37 38 39 40 41 42 43 44 45 46 47 48 49 50
000
ASUS43 KLSX 260510
RWRMO

WEATHER SUMMARY FOR MISSOURI
NATIONAL WEATHER SERVICE SPRINGFIELD MO
1100 PM CST SAT FEB 25 2017

NOTE: "FAIR" INDICATES FEW OR NO CLOUDS BELOW 12,000 FEET WITH NO
       SIGNIFICANT WEATHER AND/OR OBSTRUCTIONS TO VISIBILITY.
       CURRENT SKY AND/OR WEATHER CONDITIONS ARE NOT AVAILABLE FOR
       CHILLICOTHE AND FARMINGTON.

MOZ001>031-035>038-043-044-053-054-260600-
...NORTHERN AND WESTERN MISSOURI...

CITY           SKY/WX    TMP DP  RH WIND       PRES   REMARKS
KANSAS CTY INT CLEAR     28  13  53 S10       30.00F WCI  19
KANSAS C DTWN  CLEAR     36  11  35 S9        30.02F WCI  29
LEE`S SUMMIT   CLEAR     35  12  38 S13       30.03F WCI  26
ST JOSEPH      CLOUDY    35  16  45 S13       29.99F WCI  26
CHILLICOTHE      N/A     29  12  49 S5        30.05S WCI  24
KIRKSVILLE     CLOUDY    25  16  68 S8        30.05F WCI  16

$$
MOZ066>068-077>081-088>096-101>105-260600-
...SOUTHWEST MISSOURI...

CITY           SKY/WX    TMP DP  RH WIND       PRES   REMARKS
SPRINGFIELD    CLEAR     27  17  66 SE5       30.08F WCI  22
JOPLIN         CLEAR     30  16  56 S5        30.10S WCI  25
BRANSON        CLOUDY    34  14  44 S6        30.10F WCI  29

$$
MOZ032>034-039>042-045>050-055>058-069>072-260600-
...CENTRAL MISSOURI...

CITY           SKY/WX    TMP DP  RH WIND       PRES   REMARKS
COLUMBIA       MOCLDY    29  11  47 S6        30.09F WCI  23
JEFFERSON CITY MOCLDY    28  15  58 SE6       30.12S WCI  22
ROLLA          CLEAR     28  12  51 SE8       30.09S WCI  20
SEDALIA        CLOUDY    30  16  56 S8        30.08F WCI  22
WHITEMAN AFB   MOCLDY    32  18  55 S10       30.05F WCI  24
WARRENSBURG    PTCLDY    32  16  51 S6        30.06F WCI  26
OSAGE BEACH    CLEAR     27  15  61 SE3       30.12S

$$
MOZ051-052-059>065-260600-
...EAST CENTRAL MISSOURI...

CITY           SKY/WX    TMP DP  RH WIND       PRES   REMARKS
ST LOUIS INTL  CLEAR     31  16  54 CALM      30.13S
SPIRIT OF STL  CLEAR     24  17  74 CALM      30.13F
ST CHARLES     CLEAR     24  14  65 CALM      30.13S

$$
MOZ072>076-082>087-097>100-106>115-260600-
...SOUTH CENTRAL AND SOUTHEAST MISSOURI...

CITY           SKY/WX    TMP DP  RH WIND       PRES   REMARKS
CAPE GIRARDEAU CLEAR     30  15  53 CALM      30.17R
FARMINGTON     CLEAR     25  17  72 CALM      30.14S
POPLAR BLUFF   CLEAR     31  23  72 N3        30.16S
WEST PLAINS    CLEAR     27  16  63 CALM      30.12S

$$



USA.gov is the U.S. government's official web portal to all federal, state and local government web resources and services.